Tracking 19280 objects as of 14-Nov-2018
HD Live streaming from Space Station
objects crossing your sky now

EXPLORER 38 (RAE-A)

Track EXPLORER 38 (RAE-A) now!
10-day predictions
EXPLORER 38 (RAE-A) is classified as:


NORAD ID: 3307
Int'l Code: 1968-055A
Perigee: 5,836.4 km
Apogee: 5,866.2 km
Inclination: 120.8 °
Period: 224.1 minutes
Semi major axis: 12222 km
RCS: 18.133 m2 (large)
Launch date: July 4, 1968
Source: United States (US)
Launch site: AIR FORCE WESTERN TEST RANGE (AFWTR)
aabbcc
Your satellite tracking list
Your tracking list is empty




NASA's NSSDC Master Catalog

Two Line Element Set (TLE):
1  3307U 68055A   18317.15430284 -.00000010 +00000-0 +00000-0 0  9996
2  3307 120.8115 148.2351 0012188 160.8600 199.2461 06.42501081181388
Source of the keplerian elements: AFSPC